Location: Bathurst
(33.4193°S, 149.5775°E)
Time: 01:26:03
(UTC+11:00)

ISS - Visible Passes

Search period start: 25 January 2021 00:00
Search period end: 04 February 2021 00:00
Orbit: 418 x 421 km, 51.6° (Epoch: 24 January)

Date Brightness Start Highest point End Pass type
(mag) Time Alt. Az. Time Alt. Az. Time Alt. Az.
25 Jan -0.9 03:52:24 13° ENE 03:52:24 13° ENE 03:53:20 10° E visible
25 Jan -2.9 05:25:23 15° WNW 05:27:55 41° SW 05:31:11 10° SSE visible
26 Jan -3.8 04:40:02 61° WNW 04:40:31 78° SW 04:43:56 10° SE visible
27 Jan -1.8 03:54:36 29° ESE 03:54:36 29° ESE 03:56:31 10° SE visible
27 Jan -1.4 05:28:00 10° WSW 05:30:13 16° SSW 05:32:26 10° S visible
28 Jan -2.1 04:42:04 23° SW 04:42:40 24° SW 04:45:32 10° SSE visible
29 Jan -1.7 03:56:30 27° S 03:56:30 27° S 03:58:26 10° SSE visible
30 Jan -0.3 03:10:54 12° SE 03:10:54 12° SE 03:11:09 10° SE visible
30 Jan -1.0 04:44:06 10° SW 04:45:03 11° SSW 04:45:59 10° S visible
31 Jan -1.0 03:58:12 15° SSW 03:58:12 15° SSW 03:59:35 10° S visible
01 Feb -0.2 03:12:30 11° SSE 03:12:30 11° SSE 03:12:39 10° SSE visible
